Location: ?????
(55.6500°N, 37.2500°E)
Time: 03:36:27
(UTC+00:00)

Cosmos 2369 - Pass Details

Date: 19 May 2025
Orbit: 840 x 853 km, 71.0° (Epoch: 19 June)

Event Time Altitude Azimuth Distance (km) Brightness Sun altitude
Rises 19:47:18 0° 325° (NW) 3,418 8.7 -11.5°
Reaches altitude 10° 19:49:47 10° 322° (NW) 2,477 7.5 -11.6°
Maximum altitude 19:55:21 60° 244° (WSW) 960 4.0 -11.9°
Enters shadow 19:59:46 16° 168° (SSE) 2,046 5.1 -12.1°
